TimeCDT,TemperatureF,Dew PointF,Humidity,Sea Level PressureIn,VisibilityMPH,Wind Direction,Wind SpeedMPH,Gust SpeedMPH,PrecipitationIn,Events,Conditions,WindDirDegrees,DateUTC
12:13 AM,44.6,39.2,81,29.88,7.0,NNW,5.8,-,N/A,,Overcast,340,2013-10-16 05:13:00
12:32 AM,44.6,39.2,81,29.89,10.0,NNW,5.8,-,N/A,,Overcast,330,2013-10-16 05:32:00
12:53 AM,44.6,39.2,81,29.89,10.0,NNW,9.2,-,N/A,,Overcast,340,2013-10-16 05:53:00
1:13 AM,44.6,37.4,76,29.89,10.0,NNW,9.2,-,N/A,,Overcast,340,2013-10-16 06:13:00
1:33 AM,44.6,37.4,76,29.90,10.0,NNW,6.9,-,N/A,,Overcast,330,2013-10-16 06:33:00
1:53 AM,42.8,37.4,81,29.90,10.0,NNW,5.8,-,N/A,,Overcast,330,2013-10-16 06:53:00
2:13 AM,42.8,37.4,81,29.91,10.0,NW,5.8,-,N/A,,Overcast,320,2013-10-16 07:13:00
2:33 AM,42.8,37.4,81,29.91,10.0,NW,5.8,-,N/A,,Overcast,320,2013-10-16 07:33:00
2:53 AM,42.8,37.4,81,29.91,10.0,NNW,5.8,-,N/A,,Overcast,330,2013-10-16 07:53:00
3:12 AM,42.8,37.4,81,29.90,10.0,NNW,4.6,-,N/A,,Overcast,330,2013-10-16 08:12:00
3:33 AM,42.8,37.4,81,29.90,10.0,NNW,5.8,-,N/A,,Overcast,340,2013-10-16 08:33:00
3:53 AM,42.8,37.4,81,29.90,10.0,NW,3.5,-,N/A,,Overcast,320,2013-10-16 08:53:00
4:12 AM,42.8,35.6,76,29.90,10.0,North,9.2,-,N/A,,Overcast,350,2013-10-16 09:12:00
4:33 AM,42.8,35.6,76,29.90,10.0,NW,6.9,-,N/A,,Overcast,310,2013-10-16 09:33:00
4:53 AM,41.0,35.6,81,29.90,10.0,NNW,4.6,-,N/A,,Overcast,340,2013-10-16 09:53:00
5:12 AM,39.2,35.6,87,29.90,10.0,Calm,Calm,-,N/A,,Overcast,0,2013-10-16 10:12:00
5:33 AM,37.4,33.8,87,29.90,10.0,Calm,Calm,-,N/A,,Mostly Cloudy,0,2013-10-16 10:33:00
5:53 AM,35.6,30.2,81,29.90,10.0,Calm,Calm,-,N/A,,Scattered Clouds,0,2013-10-16 10:53:00
6:12 AM,33.8,28.4,81,29.91,7.0,Calm,Calm,-,N/A,,Clear,0,2013-10-16 11:12:00
6:33 AM,33.8,28.4,81,29.90,10.0,Calm,Calm,-,N/A,,Clear,0,2013-10-16 11:33:00
6:52 AM,35.6,30.2,81,29.90,10.0,Calm,Calm,-,N/A,,Clear,0,2013-10-16 11:52:00
7:13 AM,35.6,30.2,81,29.90,10.0,Calm,Calm,-,N/A,,Clear,0,2013-10-16 12:13:00
7:33 AM,33.8,28.4,81,29.90,4.0,Calm,Calm,-,N/A,,Haze,0,2013-10-16 12:33:00
7:52 AM,33.8,28.4,81,29.90,0.2,Calm,Calm,-,N/A,,Haze,0,2013-10-16 12:52:00
8:13 AM,33.8,28.4,81,29.91,0.5,Calm,Calm,-,N/A,,Haze,0,2013-10-16 13:13:00
8:32 AM,35.6,30.2,81,29.91,3.0,Calm,Calm,-,N/A,,Haze,0,2013-10-16 13:32:00
8:53 AM,39.2,33.8,81,29.92,10.0,Calm,Calm,-,N/A,,Clear,0,2013-10-16 13:53:00
9:13 AM,41.0,35.6,81,29.92,10.0,Calm,Calm,-,N/A,,Clear,0,2013-10-16 14:13:00
9:32 AM,42.8,37.4,81,29.92,10.0,WNW,3.5,-,N/A,,Clear,300,2013-10-16 14:32:00
9:53 AM,42.8,37.4,81,29.92,10.0,Calm,Calm,-,N/A,,Clear,0,2013-10-16 14:53:00
10:13 AM,44.6,39.2,81,29.92,10.0,Calm,Calm,-,N/A,,Clear,0,2013-10-16 15:13:00
10:32 AM,44.6,39.2,81,29.92,10.0,Calm,Calm,-,N/A,,Clear,0,2013-10-16 15:32:00
10:53 AM,46.4,39.2,76,29.91,10.0,North,3.5,-,N/A,,Clear,350,2013-10-16 15:53:00
11:13 AM,48.2,39.2,71,29.91,10.0,WNW,4.6,-,N/A,,Clear,300,2013-10-16 16:13:00
11:32 AM,50.0,39.2,66,29.91,10.0,West,4.6,-,N/A,,Clear,280,2013-10-16 16:32:00
11:53 AM,48.2,39.2,71,29.91,10.0,West,4.6,-,N/A,,Clear,270,2013-10-16 16:53:00
12:13 PM,48.2,37.4,66,29.91,10.0,WNW,4.6,-,N/A,,Clear,300,2013-10-16 17:13:00
12:32 PM,51.8,39.2,62,29.90,10.0,West,5.8,-,N/A,,Scattered Clouds,280,2013-10-16 17:32:00
12:53 PM,51.8,39.2,62,29.90,10.0,WNW,5.8,-,N/A,,Scattered Clouds,300,2013-10-16 17:53:00
1:13 PM,50.0,39.2,66,29.89,10.0,WSW,3.5,-,N/A,,Scattered Clouds,240,2013-10-16 18:13:00
1:32 PM,51.8,37.4,58,29.89,10.0,WSW,5.8,-,N/A,,Scattered Clouds,250,2013-10-16 18:32:00
1:53 PM,53.6,37.4,54,29.88,10.0,SW,4.6,-,N/A,,Clear,230,2013-10-16 18:53:00
2:13 PM,53.6,37.4,54,29.88,10.0,SSW,5.8,-,N/A,,Clear,210,2013-10-16 19:13:00
2:33 PM,53.6,37.4,54,29.87,10.0,WSW,3.5,-,N/A,,Clear,240,2013-10-16 19:33:00
2:52 PM,53.6,35.6,51,29.87,10.0,SSW,4.6,-,N/A,,Clear,200,2013-10-16 19:52:00
3:13 PM,55.4,33.8,44,29.86,10.0,SSW,6.9,-,N/A,,Clear,210,2013-10-16 20:13:00
3:33 PM,55.4,32.0,41,29.86,10.0,SW,4.6,-,N/A,,Clear,230,2013-10-16 20:33:00
3:52 PM,55.4,33.8,44,29.85,10.0,WSW,6.9,-,N/A,,Clear,240,2013-10-16 20:52:00
4:13 PM,55.4,30.2,38,29.85,10.0,SW,8.1,-,N/A,,Clear,230,2013-10-16 21:13:00
4:33 PM,55.4,30.2,38,29.85,10.0,West,4.6,-,N/A,,Clear,260,2013-10-16 21:33:00
4:52 PM,55.4,30.2,38,29.84,10.0,WSW,4.6,-,N/A,,Clear,250,2013-10-16 21:52:00
5:13 PM,55.4,32.0,41,29.84,10.0,SSW,3.5,-,N/A,,Clear,210,2013-10-16 22:13:00
5:33 PM,53.6,33.8,47,29.84,10.0,SW,3.5,-,N/A,,Clear,220,2013-10-16 22:33:00
5:52 PM,53.6,35.6,51,29.84,10.0,Calm,Calm,-,N/A,,Clear,0,2013-10-16 22:52:00
6:13 PM,51.8,35.6,54,29.84,10.0,Calm,Calm,-,N/A,,Clear,0,2013-10-16 23:13:00
6:33 PM,46.4,37.4,71,29.84,10.0,Calm,Calm,-,N/A,,Clear,0,2013-10-16 23:33:00
6:52 PM,44.6,35.6,71,29.84,10.0,Calm,Calm,-,N/A,,Clear,0,2013-10-16 23:52:00
7:13 PM,41.0,35.6,81,29.84,10.0,Calm,Calm,-,N/A,,Clear,0,2013-10-17 00:13:00
7:32 PM,41.0,35.6,81,29.84,10.0,Calm,Calm,-,N/A,,Clear,0,2013-10-17 00:32:00
7:53 PM,39.2,33.8,81,29.84,10.0,Calm,Calm,-,N/A,,Clear,0,2013-10-17 00:53:00
8:13 PM,39.2,33.8,81,29.84,10.0,Calm,Calm,-,N/A,,Clear,0,2013-10-17 01:13:00
8:32 PM,39.2,33.8,81,29.84,10.0,Calm,Calm,-,N/A,,Clear,0,2013-10-17 01:32:00
8:53 PM,39.2,33.8,81,29.84,10.0,Calm,Calm,-,N/A,,Clear,0,2013-10-17 01:53:00
9:13 PM,39.2,33.8,81,29.84,10.0,Calm,Calm,-,N/A,,Clear,0,2013-10-17 02:13:00
9:32 PM,37.4,33.8,87,29.83,10.0,Calm,Calm,-,N/A,,Clear,0,2013-10-17 02:32:00
9:53 PM,35.6,32.0,87,29.83,10.0,Calm,Calm,-,N/A,,Clear,0,2013-10-17 02:53:00
10:13 PM,37.4,32.0,81,29.83,10.0,Calm,Calm,-,N/A,,Clear,0,2013-10-17 03:13:00
10:32 PM,35.6,30.2,81,29.82,7.0,Calm,Calm,-,N/A,,Clear,0,2013-10-17 03:32:00
10:53 PM,35.6,30.2,81,29.82,10.0,Calm,Calm,-,N/A,,Clear,0,2013-10-17 03:53:00
11:13 PM,35.6,30.2,81,29.82,10.0,Calm,Calm,-,N/A,,Clear,0,2013-10-17 04:13:00
11:32 PM,33.8,28.4,81,29.82,10.0,Calm,Calm,-,N/A,,Clear,0,2013-10-17 04:32:00
11:53 PM,33.8,28.4,81,29.82,10.0,Calm,Calm,-,N/A,,Clear,0,2013-10-17 04:53:00